GW6826 Weather Reports


time (UTC)temp
F
wind
direction
speed
knots
gust
knots
rain 1hr
in
rain 24hr
in
rain mn
in
humidity
%
barometer
mb
20260504081524 76 200 0.9 5.2 0.00 0.00 0.00 44 1013.0
20260504050020 69 12 5.2 9.6 0.00 0.00 0.00 56 1013.2
20260504044525 68 36 0.9 6.1 0.00 0.00 0.00 62 1014.0
20260504043014 69 250 4.3 7.0 0.00 0.00 0.00 58 1014.6
20260504041522 69 299 0.9 2.6 0.00 0.00 0.00 58 1013.5
20260504040022 68 160 0.0 3.5 0.00 0.00 0.00 58 1013.5
20260504034531 68 352 1.7 4.3 0.00 0.00 0.00 58 1013.2
20260504033021 69 325 0.9 4.3 0.00 0.00 0.00 55 1013.5
20260504031517 69 335 2.6 7.8 0.00 0.00 0.00 54 1013.1
20260504030037 68 86 2.6 7.8 0.00 0.00 0.00 56 1012.8
20260504024522 67 5 1.7 7.8 0.00 0.00 0.00 61 1013.2
20260504023010 69 273 1.7 7.8 0.00 0.00 0.00 55 1013.0
20260504021514 69 279 5.2 7.8 0.00 0.00 0.00 54 1012.7
20260504020020 69 13 2.6 9.6 0.00 0.00 0.00 53 1011.8
20260504014511 68 315 4.3 9.6 0.00 0.00 0.00 57 1012.4
20260504013008 68 329 1.7 4.3 0.00 0.00 0.00 60 1012.3
20260504011511 69 323 2.6 7.8 0.00 0.00 0.00 57 1012.4
20260504010020 69 275 0.0 3.5 0.00 0.00 0.00 56 1011.7
20260504004522 70 352 0.9 3.5 0.00 0.00 0.00 53 1011.1
20260504003010 71 360 0.9 6.1 0.00 0.00 0.00 52 1011.0
20260504001507 71 352 2.6 7.8 0.00 0.00 0.00 49 1010.8
20260504000013 71 57 2.6 7.8 0.00 0.00 0.00 50 1010.8
20260503234529 72 295 1.7 3.5 0.00 0.00 0.00 46 1011.6
20260503233021 73 311 0.9 5.2 0.00 0.00 0.00 47 1010.9
20260503231512 72 294 1.7 7.0 0.00 0.00 0.00 46 1010.8
20260503230012 73 327 1.7 5.2 0.00 0.00 0.00 46 1010.8
20260503224517 74 51 0.9 3.5 0.00 0.00 0.00 44 1010.9
20260503223018 74 113 1.7 7.0 0.00 0.00 0.00 44 1011.3
20260503221524 74 117 4.3 10.4 0.00 0.00 0.00 45 1011.3
20260503220007 74 171 3.5 9.6 0.00 0.00 0.00 44 1011.7
20260503214514 73 186 5.2 13.9 0.00 0.00 0.00 50 1012.5
20260503213018 72 162 7.0 11.3 0.00 0.00 0.00 56 1012.7
20260503211520 72 293 2.6 7.8 0.00 0.00 0.00 52 1011.8
20260503210028 73 345 0.9 7.0 0.00 0.00 0.00 51 1011.4
20260503204512 74 305 0.0 7.8 0.00 0.00 0.00 48 1010.6
20260503203021 73 82 1.7 7.0 0.00 0.00 0.00 48 1010.7
20260503201518 73 78 5.2 7.0 0.00 0.00 0.00 51 1011.1
20260503200024 75 92 1.7 26.1 0.00 0.00 0.00 43 1012.2
20260503194527 79 182 1.7 10.4 0.00 0.00 0.00 34 1011.7
20260503193034 79 146 4.3 9.6 0.00 0.00 0.00 33 1011.0
20260503191516 79 121 5.2 13.0 0.00 0.00 0.00 35 1011.1
20260503190019 79 154 5.2 7.8 0.00 0.00 0.00 32 1011.2
20260503184534 79 150 5.2 8.7 0.00 0.00 0.00 36 1011.7
20260503183029 79 238 0.0 1.7 0.00 0.00 0.00 36 1012.1
20260503181528 79 86 0.0 2.6 0.00 0.00 0.00 36 1011.7
20260503180024 79 100 0.9 5.2 0.00 0.00 0.00 36 1011.5
20260503174530 78 129 0.9 4.3 0.00 0.00 0.00 37 1011.7
20260503173035 78 207 2.6 5.2 0.00 0.00 0.00 37 1011.6
20260503171516 78 202 1.7 12.2 0.00 0.00 0.00 39 1011.1